Location: Brachstadt
(48.6975°N, 10.6755°E)
Time: 02:14:40
(UTC+00:00)

MetOp-B - Pass Details

Date: 18 September 2020
Orbit: 819 x 821 km, 98.7° (Epoch: 24 October)

Event Time Altitude Azimuth Distance (km) Brightness Sun altitude
Exits shadow 19:41:03 51° 108° (ESE) 1,026 4.2 -22.5°
Maximum altitude 19:41:56 58° 69° (ENE) 955 4.2 -22.6°
Drops below altitude 10° 19:47:11 10° 352° (N) 2,428 7.1 -23.3°
Sets 19:49:34 0° 349° (N) 3,364 8.0 -23.7°
